Location: MAC-Johnson Site
(33.6264°N, 81.2093°W)
Time: 19:04:02
(UTC-04:00)

BlueWalker 3 - Pass Details

Date: 10 September 2024
Orbit: 472 x 485 km, 53.2° (Epoch: 10 October)

Event Time Altitude Azimuth Distance (km) Brightness Sun altitude
Rises 22:09:34 0° 319° (NW) 2,551 6.5 -30.9°
Reaches altitude 10° 22:11:46 10° 323° (NW) 1,671 5.3 -31.3°
Enters shadow 22:12:36 16° 327° (NNW) 1,346 4.7 -31.4°
